Regional Weather Roundup
Issued by NWS

Home | Current Version | Previous Version | Text Only | Print | Product List | Glossary Off
Versions: 1 2 3 4 5 6 7 8 9 10 11 12 13 14 15 16 17 18 19 20 21 22 23 24 25 26 27 28 29 30 31 32 33 34 35 36 37 38 39 40 41 42 43 44 45 46 47 48 49 50

000
ASUS45 KCYS 121710
RWRWY

WYOMING REGIONAL WEATHER ROUNDUP
NATIONAL WEATHER SERVICE CHEYENNE WY
1100 AM MDT SAT JUL 12 2014

NOTE:  "FAIR" INDICATES FEW OR NO CLOUDS BELOW 12,000 FEET
WITH NO SIGNIFICANT WEATHER AND/OR OBSTRUCTIONS TO VISIBILITY.

WYZ001-121800-
YELLOWSTONE NATIONAL PARK

CITY           SKY/WX    TMP DP  RH WIND       PRES   REMARKS
LK YELLOWSTONE   N/A     60  50  69 VRB5      30.49S
W YELLOWSTONE  NOT AVBL

$$
WYZ002>013-054>058-071-098>099-121800-
NORTHERN WYOMING

CITY           SKY/WX    TMP DP  RH WIND       PRES   REMARKS
JACKSON        SUNNY     64  52  63 CALM      30.39F
CODY           MOSUNNY   73  54  49 NE12      30.29R
GREYBULL       MOSUNNY   78  54  43 NW8       30.22R
WORLAND        MOSUNNY   76  55  48 SW6       30.22F
SHERIDAN       MOSUNNY   76  58  53 NW12      30.24R
BUFFALO        MOSUNNY   74  55  51 N13G23    30.28R
GILLETTE       SUNNY     76  57  51 N12       30.23R
HULETT         FAIR      73  59  60 MISG      30.23
NEWCASTLE      FAIR      73  52  46 MISG      30.22

$$
WYZ014>020-022>026-101>103-121800-
CENTRAL WYOMING

CITY           SKY/WX    TMP DP  RH WIND       PRES   REMARKS
BIG PINEY      SUNNY     72  48  42 SW6       30.41R
PINEDALE       SUNNY     70  46  43 NW9       30.41S
DUBOIS         FAIR      73  43  33 N9        30.39S
LANDER         SUNNY     73  54  51 CALM      30.32S
RIVERTON       SUNNY     71  55  56 VRB3      30.32S
CASPER         SUNNY     76  53  44 N17       30.29R
DOUGLAS        MOSUNNY   74  56  53 NW8       30.28S

$$
WYZ021-027>030-104>119-121800-
SOUTHERN WYOMING

CITY           SKY/WX    TMP DP  RH WIND       PRES   REMARKS
EVANSTON       SUNNY     71  54  54 VRB5      30.41S
KEMMERER       SUNNY     72  48  43 NW6       30.43S
ROCK SPRINGS   SUNNY     73  51  46 VRB5      30.38S
DIXON          FAIR      72  56  57 SE6       30.39S
RAWLINS        MOSUNNY   74  51  44 NE9       30.38R
SARATOGA       FAIR      70  54  56 N7        30.41R
LARAMIE        RAIN      61  56  83 S5        30.40R VSB 3/4
CHEYENNE       MOSUNNY   67  58  72 NE10G18   30.34R
TORRINGTON     PTSUNNY   71  61  70 VRB5      30.22S

$$



USA.gov is the U.S. government's official web portal to all federal, state and local government web resources and services.